Location: Unspecified
(0.0000°N, 0.0000°E)
Time: 09:50:41
(UTC+00:00)

Vanguard 2 - Pass Details

Date: 23 October 2021
Orbit: 554 x 2936 km, 32.9° (Epoch: 06 December)

Event Time Altitude Azimuth Distance (km) Brightness Sun altitude
Rises 20:47:25 0° 229° (SW) 6,362 12.9 -44.6°
Reaches altitude 10° 20:51:26 10° 226° (SW) 5,528 12.3 -45.5°
Enters shadow 21:06:59 65° 176° (S) 3,119 10.3 -49.2°
Maximum altitude 21:09:03 68° 145° (SE) 3,045 - -49.7°
Drops below altitude 10° 21:24:47 10° 65° (ENE) 5,031 - -53.5°
Sets 21:28:12 0° 62° (ENE) 5,789 - -54.3°
